Total_Precipitation_Accumulation
0.01 0.03 0.02 0.00 0.02 0.07 0.07 0.06 0.08 0.11 0.16 0.22 0.36 0.44 0.49 0.63 0.80 0.97 0.89 0.78 0.66 0.54 0.49 0.50 0.54 0.41 0.37 0.41 0.46 0.40 0.28 0.20 0.18 0.20 0.23 0.30 0.31 0.55 0.68 0.54 0.38 0.31 0.22
0.01 0.02 0.01 0.00 0.00 0.00 0.03 0.00 0.01 0.01 0.06 0.11 0.26 0.21 0.27 0.25 0.35 0.34 0.36 0.34 0.35 0.32 0.35 0.47 0.49 0.65 0.93 0.84 0.69 0.71 0.72 0.69 0.65 0.71 0.82 0.61 0.43 0.48 0.38 0.24 0.22 0.25 0.18
0.01 0.00 0.00 0.00 0.01 0.01 0.02 0.02 0.01 0.00 0.01 0.08 0.18 0.06 0.08 0.10 0.19 0.26 0.31 0.23 0.22 0.26 0.36 0.59 0.89 1.07 1.18 1.17 1.03 0.97 0.99 0.89 0.70 0.64 0.76 0.68 0.50 0.46 0.41 0.31 0.26 0.23 0.18
0.01 0.00 0.00 0.00 0.01 0.03 0.04 0.07 0.12 0.05 0.02 0.03 0.09 0.04 0.01 0.02 0.05 0.05 0.14 0.35 0.52 0.41 0.34 0.38 0.51 0.78 1.11 1.10 1.10 0.88 0.74 0.65 0.66 0.70 0.73 0.73 0.63 0.59 0.56 0.51 0.41 0.33 0.26
0.03 0.01 0.00 0.00 0.01 0.02 0.03 0.05 0.05 0.07 0.10 0.12 0.06 0.03 0.01 0.02 0.04 0.07 0.13 0.22 0.47 0.68 0.71 0.66 0.68 0.76 0.75 0.71 0.60 0.54 0.47 0.49 0.60 0.65 0.67 0.77 0.75 0.77 0.82 0.72 0.52 0.42 0.36
0.09 0.04 0.01 0.00 0.00 0.01 0.01 0.00 0.01 0.03 0.08 0.12 0.12 0.07 0.09 0.03 0.00 0.02 0.04 0.10 0.16 0.22 0.32 0.37 0.41 0.47 0.40 0.31 0.24 0.20 0.20 0.29 0.35 0.41 0.55 0.67 0.56 0.53 0.57 0.63 0.67 0.50 0.30
0.14 0.09 0.05 0.00 0.00 0.00 0.00 0.03 0.09 0.12 0.13 0.17 0.21 0.23 0.08 0.00 0.00 0.00 0.02 0.04 0.01 0.02 0.04 0.05 0.04 0.03 0.02 0.01 0.01 0.01 0.03 0.05 0.07 0.15 0.17 0.11 0.09 0.10 0.16 0.36 0.52 0.57 0.56
0.21 0.25 0.13 0.02 0.03 0.09 0.16 0.27 0.20 0.11 0.05 0.02 0.01 0.00 0.00 0.00 0.00 0.02 0.05 0.01 0.00 0.00 0.00 0.00 0.01 0.02 0.02 0.01 0.01 0.01 0.00 0.00 0.00 0.02 0.03 0.05 0.04 0.03 0.07 0.21 0.27 0.41 0.49
0.27 0.28 0.11 0.21 0.20 0.19 0.24 0.21 0.08 0.00 0.00 0.00 0.00 0.00 0.00 0.00 0.00 0.00 0.00 0.00 0.00 0.00 0.00 0.00 0.00 0.00 0.00 0.00 0.00 0.00 0.00 0.00 0.00 0.00 0.00 0.02 0.04 0.03 0.00 0.00 0.01 0.06 0.09
0.26 0.19 0.14 0.18 0.14 0.12 0.11 0.08 0.04 0.01 0.00 0.00 0.00 0.00 0.00 0.00 0.00 0.00 0.00 0.00 0.00 0.00 0.00 0.00 0.00 0.00 0.00 0.00 0.00 0.00 0.00 0.00 0.00 0.00 0.00 0.00 0.00 0.00 0.00 0.00 0.01 0.03 0.03
0.04 0.02 0.04 0.05 0.10 0.09 0.11 0.09 0.05 0.02 0.01 0.01 0.00 0.00 0.00 0.00 0.00 0.00 0.00 0.00 0.00 0.00 0.00 0.01 0.00 0.01 0.00 0.00 0.00 0.00 0.01 0.01 0.01 0.00 0.00 0.00 0.00 0.00 0.01 0.04 0.07 0.05 0.05
0.13 0.12 0.10 0.12 0.14 0.13 0.12 0.11 0.06 0.07 0.11 0.11 0.07 0.05 0.05 0.05 0.08 0.05 0.04 0.05 0.05 0.04 0.06 0.07 0.12 0.16 0.10 0.05 0.02 0.01 0.01 0.01 0.01 0.01 0.01 0.01 0.00 0.00 0.00 0.00 0.00 0.00 0.00
0.19 0.14 0.15 0.22 0.34 0.42 0.69 0.78 0.67 0.42 0.24 0.21 0.16 0.23 0.27 0.32 0.36 0.41 0.31 0.31 0.36 0.31 0.31 0.33 0.30 0.21 0.13 0.08 0.06 0.04 0.02 0.02 0.01 0.00 0.00 0.00 0.00 0.00 0.00 0.00 0.00 0.00 0.00
0.23 0.23 0.39 0.64 0.76 0.84 0.67 0.53 0.44 0.34 0.22 0.17 0.14 0.13 0.12 0.13 0.16 0.17 0.19 0.19 0.17 0.13 0.10 0.06 0.02 0.01 0.00 0.00 0.00 0.00 0.00 0.00 0.00 0.00 0.00 0.00 0.00 0.00 0.00 0.00 0.00 0.00 0.00
0.09 0.11 0.15 0.24 0.27 0.24 0.24 0.18 0.12 0.10 0.10 0.08 0.07 0.05 0.02 0.01 0.03 0.03 0.03 0.02 0.01 0.00 0.00 0.00 0.00 0.00 0.00 0.00 0.00 0.00 0.00 0.00 0.00 0.00 0.00 0.00 0.00 0.00 0.00 0.00 0.00 0.00 0.00
0.03 0.00 0.00 0.00 0.01 0.03 0.07 0.07 0.09 0.07 0.05 0.01 0.00 0.00 0.00 0.00 0.00 0.00 0.00 0.00 0.00 0.00 0.00 0.00 0.00 0.00 0.00 0.00 0.00 0.00 0.00 0.00 0.00 0.00 0.00 0.00 0.00 0.00 0.00 0.00 0.00 0.00 0.00
0.00 0.00 0.00 0.00 0.00 0.00 0.00 0.00 0.00 0.00 0.00 0.00 0.00 0.00 0.00 0.00 0.00 0.00 0.00 0.00 0.00 0.00 0.00 0.00 0.00 0.00 0.00 0.00 0.00 0.00 0.00 0.00 0.00 0.00 0.00 0.00 0.00 0.00 0.00 0.00 0.00 0.00 0.00
0.00 0.00 0.00 0.00 0.00 0.00 0.00 0.00 0.00 0.00 0.00 0.00 0.00 0.00 0.00 0.00 0.00 0.00 0.00 0.00 0.00 0.00 0.00 0.00 0.00 0.00 0.00 0.00 0.00 0.00 0.00 0.00 0.00 0.00 0.00 0.00 0.00 0.00 0.00 0.00 0.00 0.00 0.00
0.00 0.00 0.00 0.00 0.00 0.00 0.00 0.00 0.00 0.00 0.00 0.00 0.00 0.00 0.00 0.00 0.00 0.00 0.00 0.00 0.00 0.00 0.00 0.00 0.00 0.00 0.00 0.00 0.00 0.00 0.00 0.00 0.00 0.00 0.00 0.00 0.00 0.00 0.00 0.00 0.00 0.00 0.00
0.00 0.00 0.00 0.00 0.00 0.00 0.00 0.00 0.00 0.00 0.00 0.00 0.00 0.00 0.00 0.00 0.00 0.00 0.00 0.00 0.00 0.00 0.00 0.00 0.00 0.00 0.00 0.00 0.00 0.00 0.00 0.00 0.00 0.00 0.00 0.00 0.00 0.00 0.00 0.00 0.00 0.00 0.00
0.00 0.00 0.00 0.00 0.00 0.00 0.00 0.00 0.00 0.00 0.00 0.00 0.00 0.00 0.00 0.00 0.00 0.00 0.00 0.00 0.00 0.00 0.00 0.00 0.00 0.00 0.00 0.00 0.00 0.00 0.00 0.00 0.00 0.00 0.00 0.00 0.00 0.00 0.00 0.00 0.00 0.00 0.00
0.00 0.00 0.00 0.00 0.00 0.00 0.00 0.00 0.00 0.00 0.00 0.00 0.00 0.00 0.00 0.00 0.00 0.00 0.00 0.00 0.00 0.00 0.00 0.00 0.00 0.00 0.00 0.00 0.00 0.00 0.00 0.00 0.00 0.00 0.00 0.00 0.00 0.00 0.00 0.00 0.00 0.00 0.00
0.00 0.00 0.00 0.00 0.00 0.00 0.00 0.00 0.00 0.00 0.00 0.00 0.00 0.00 0.00 0.00 0.00 0.00 0.00 0.00 0.00 0.00 0.00 0.00 0.00 0.00 0.00 0.00 0.00 0.00 0.00 0.00 0.00 0.00 0.00 0.00 0.00 0.00 0.00 0.00 0.00 0.00 0.00
0.00 0.00 0.00 0.00 0.00 0.00 0.00 0.00 0.00 0.00 0.00 0.00 0.00 0.00 0.00 0.00 0.00 0.00 0.00 0.00 0.00 0.00 0.00 0.00 0.00 0.00 0.00 0.00 0.00 0.00 0.00 0.00 0.00 0.00 0.00 0.00 0.00 0.00 0.00 0.00 0.00 0.00 0.00
0.00 0.00 0.00 0.00 0.00 0.00 0.00 0.00 0.00 0.00 0.00 0.00 0.00 0.00 0.00 0.00 0.00 0.00 0.00 0.00 0.00 0.00 0.00 0.00 0.00 0.00 0.00 0.00 0.00 0.00 0.00 0.00 0.00 0.00 0.00 0.00 0.00 0.00 0.00 0.00 0.00 0.00 0.00
0.00 0.00 0.00 0.00 0.00 0.00 0.00 0.00 0.00 0.00 0.00 0.00 0.00 0.00 0.00 0.00 0.00 0.00 0.00 0.00 0.00 0.00 0.00 0.00 0.00 0.00 0.00 0.00 0.00 0.00 0.00 0.00 0.00 0.00 0.00 0.00 0.00 0.00 0.00 0.00 0.00 0.00 0.00